#timestamp,LO_Frequency,Hit,StdDev 
1636020015.1,286046998.3,N
1636020035.9,286047002.2,N
1636020055.7,286047001.2,N
1636020075.5,286046996.7,N
1636020095.4,286046999.6,N
1636020115.2,286046999.8,N
1636020135.1,286046999.9,N
1636020136.0,286046999.9,N
1636020155.8,286047000.4,N
1636020175.6,286047001.6,N
1636020195.5,286047002.8,N
1636020215.3,286047004.2,N
1636020235.1,286047005.2,N
1636020255.9,286046998.2,N
1636020275.7,286046998.6,N
1636020295.6,286046998.6,N
1636020315.4,286046996.4,N
1636020335.2,286046993.8,N
1636020355.1,286046988.7,Y
1636020356.0,286046988.7,P
1636020375.8,286046996.0,N
1636020395.7,286046999.0,N
1636020415.5,286046995.8,N
1636020435.3,286046990.9,N
1636020455.2,286046990.4,N
1636020475.9,286046989.5,N
1636020495.7,286046991.1,N
1636020515.6,286046994.5,N
1636020535.4,286046992.7,N
1636020555.3,286046992.1,N
1636020575.1,286046997.6,N
1636020576.0,286046997.6,N
1636020595.8,286046991.7,N
1636020615.7,286046994.3,N
1636020635.2,286046990.4,N
1636020655.0,286046988.9,Y
1636020655.9,286046988.9,P
1636020675.8,286047001.2,N
1636020695.6,286047002.4,N
1636020715.4,286047001.0,N
1636020735.3,286047011.9,N
1636020755.1,286046999.5,N
1636020775.9,286046992.2,N
1636020795.7,286046996.0,N
1636020815.5,286046995.9,N
1636020835.4,286046993.8,N
1636020855.2,286046993.2,N
1636020875.1,286046995.4,N
1636020876.0,286046995.4,N
1636020895.8,286046993.9,N
1636020915.6,286046997.1,N
1636020935.5,286046996.5,N
1636020955.3,286046991.8,N
1636020975.1,286046996.5,N
1636020995.9,286046997.2,N
1636021015.7,286046993.7,N
1636021035.6,286046997.8,N
1636021055.4,286047004.0,N
1636021075.2,286047000.9,N
1636021095.1,286047001.2,N
1636021096.0,286047001.2,N
1636021115.8,286047001.3,N
1636021135.6,286047002.5,N
1636021155.5,286047005.5,N
1636021175.3,286047003.0,N
1636021195.2,286047005.7,N
1636021215.9,286047001.9,N
1636021235.7,286047003.9,N
1636021255.6,286047004.2,N
1636021275.4,286047002.3,N
1636021295.2,286046999.9,N
1636021315.1,286046998.6,N
1636021316.0,286046998.6,N
1636021335.8,286046995.0,N
1636021355.7,286046994.9,N
1636021375.5,286046998.8,N
1636021395.3,286046996.1,N
1636021415.2,286046990.2,N
1636021435.0,286046992.9,N
1636021435.9,286046992.9,N
1636021455.7,286046996.3,N
1636021475.6,286046991.3,N
1636021495.4,286046990.9,N
1636021515.3,286046993.9,N
1636021535.1,286046995.1,N
1636021536.0,286046995.1,N
1636021555.8,286046999.0,N
1636021575.7,286046997.3,N
1636021595.5,286046995.6,N
1636021615.3,286046994.6,N
1636021635.2,286046992.2,N
1636021655.0,286046994.7,N
1636021655.9,286046994.7,N
1636021675.8,286046999.1,N
1636021695.6,286046995.4,N
1636021715.4,286047003.1,N
1636021735.3,286047002.1,N
1636021755.1,286046999.2,N
1636021775.9,286046995.1,N
1636021795.7,286046994.4,N
1636021815.5,286046992.4,N
1636021835.4,286046994.4,N
1636021855.2,286046997.9,N
1636021875.0,286046999.0,N
1636021875.9,286046999.0,N
1636021895.8,286046993.6,N
1636021915.6,286046990.5,Y
1636021935.5,286046997.8,P
1636021955.3,286047002.1,N
1636021975.1,286047004.0,N
1636021995.9,286046999.8,N
1636022015.7,286046999.2,N
1636022035.5,286046995.4,N
1636022055.4,286046994.4,N
1636022075.2,286046995.5,N
1636022095.1,286046997.7,N
1636022096.0,286046997.7,N
1636022115.8,286046997.5,N
1636022135.6,286046998.4,N
1636022155.5,286046997.8,N
1636022175.3,286046990.1,Y
1636022195.2,286046990.2,P
1636022215.9,286046985.8,P
1636022235.7,286046980.5,P
1636022255.6,286046980.9,N
1636022275.4,286046981.0,N
1636022295.2,286046980.7,Y
1636022315.1,286046995.0,P
1636022316.0,286046995.0,N
1636022335.8,286046997.2,N
1636022355.7,286046997.1,N
1636022375.5,286046998.8,N
1636022395.3,286046996.5,N
1636022415.2,286047001.2,N
1636022435.0,286047000.9,N
1636022435.9,286047000.9,N
1636022455.7,286046996.7,N
1636022475.6,286047000.8,N
1636022495.4,286046999.0,N
1636022515.3,286047000.1,N
1636022535.1,286047005.8,N
1636022536.0,286047005.8,N
1636022555.8,286047005.0,N
1636022575.7,286047006.9,N
1636022595.5,286047011.3,N
1636022615.4,286047018.0,Y
1636022635.2,286047016.0,P
1636022655.0,286047014.2,N
1636022655.9,286047014.2,N
1636022675.8,286047008.9,N
1636022695.6,286047013.1,N
1636022715.4,286047011.4,N
1636022735.3,286047014.8,N
1636022755.1,286047011.1,N
1636022775.9,286047002.9,N
1636022795.7,286047005.6,N
1636022815.5,286046999.7,N
1636022835.4,286046998.9,N
1636022855.2,286047000.5,N
1636022875.0,286046997.3,N
1636022876.0,286046997.3,N
1636022895.8,286046996.4,N
1636022915.6,286046990.8,N
1636022935.5,286046990.7,N
1636022955.3,286046990.9,N
1636022975.1,286046991.7,N
1636022995.9,286046999.5,N
1636023015.7,286047004.2,N
1636023035.6,286047009.1,N
1636023055.4,286047006.2,N
1636023075.2,286047005.2,N
1636023095.1,286047006.4,N
1636023096.0,286047006.4,N
1636023115.8,286047004.9,N
1636023135.7,286047007.2,N
1636023155.5,286047003.1,N
1636023175.3,286047005.6,N
1636023195.2,286047003.1,N
1636023215.9,286047007.4,N
1636023235.7,286047004.4,N
1636023255.6,286046998.2,N
1636023275.4,286046997.9,N
1636023295.2,286046997.3,N
1636023315.1,286047003.5,N
1636023316.0,286047003.5,N
1636023335.8,286047011.7,N
1636023355.7,286047032.6,Y
1636023375.5,286047013.4,P
1636023395.3,286047009.6,N
1636023415.2,286047008.8,N
1636023435.0,286047009.9,N
1636023435.9,286047009.9,N
1636023455.8,286047008.6,N
1636023475.6,286047009.2,N
1636023495.4,286047007.9,N
1636023515.3,286047006.1,N
1636023535.1,286047004.5,N
1636023555.8,286047004.6,N
1636023575.7,286047005.3,N
1636023595.5,286047000.9,N
